Preview of NWS' New Version of Forecast
This preview is not operational and should not be used for support decisions.

Regional Weather Roundup (RWR)

Issued by National Weather Service (NWS)

                            
000
ASCA42 TJSJ 240910
RWRPR 
PUERTO RICO/U.S. VIRGIN ISLANDS HOURLY WEATHER ROUNDUP
NATIONAL WEATHER SERVICE SAN JUAN PR
500 AM AST SUN MAR 24 2019

PRZ001>002-007>008-010-241000-
PUERTO RICO
  
CITY           SKY/WX    TMP DP  RH WIND       PRES   REMARKS
SAN JUAN LMM   PTCLDY    75  70  83 CALM      30.05R                  
CEIBA          CLOUDY    77  70  78 E9        30.06R                  
$$

VIZ001>002-241000-
U.S. VIRGIN ISLANDS
  
CITY           SKY/WX    TMP DP  RH WIND       PRES   REMARKS
CHARLOTTE AMA  CLEAR     75  70  83 E7        30.04R                  
CHRISTIANSTED  PTCLDY    77  68  73 E13       30.05R                  
$$

HOURLY WEATHER ROUNDUP FOR THE NEWS MEDIA
  
CITY           SKY/WX    TMP DP  RH WIND       PRES   REMARKS
ORLANDO        FAIR      60  54  80 NE6       30.21S                  
NEW YORK       FAIR      38  13  35 W13       30.18S WCI  30          
NEWARK         FAIR      36  11  35 W5        30.19R WCI  32          
CHICAGO        MOCLDY    42  25  50 S5        30.13F                  
HARTFORD       FAIR      31  16  54 W8        30.05R WCI  23          
BOSTON         FAIR      34  13  41 W10       30.03R WCI  26          
DALLAS         CLOUDY    65  59  81 S10       30.02F                  
PHILADELPHIA   FAIR      36  21  54 SW6       30.22S WCI  31          
LOS ANGELES    PTCLDY    56  52  86 N6        30.14S                  
WASHINGTON DC  FAIR      29  20  69 S5        30.26S WCI  24